FW8830 Weather Reports


time (UTC)temp
C
wind
direction
speed
KPH
gust
KPH
rain 1hr
cm
rain 24hr
cm
rain mn
cm
humidity
%
barometer
mb
20260507041504 9 298 0.0 0.0 0.00 0.51 0.00 92 1011.0
20260507041004 9 298 0.0 0.0 0.00 0.51 0.00 92 1011.0
20260507040504 9 298 0.0 1.6 0.00 0.51 0.00 92 1011.0
20260507040004 9 298 1.6 3.2 0.00 0.51 0.00 92 1010.8
20260507035004 9 41 0.0 0.0 0.00 0.51 0.51 92 1010.8
20260507034503 9 41 0.0 3.2 0.00 0.51 0.51 92 1011.0
20260507034004 10 348 0.0 0.0 0.00 0.51 0.51 92 1011.1
20260507033504 10 348 0.0 0.0 0.00 0.51 0.51 92 1011.1
20260507033004 10 348 0.0 0.0 0.00 0.51 0.51 92 1011.1
20260507032504 10 348 0.0 0.0 0.00 0.51 0.51 92 1011.2
20260507032004 10 348 1.6 1.6 0.00 0.51 0.51 91 1011.1
20260507031504 10 305 0.0 3.2 0.00 0.51 0.51 91 1011.1
20260507025504 10 36 1.6 1.6 0.00 0.51 0.51 90 1010.6
20260507024003 10 36 0.0 0.0 0.00 0.51 0.51 89 1010.9
20260507023504 10 36 0.0 0.0 0.00 0.51 0.51 88 1010.7
20260507023004 11 36 0.0 0.0 0.00 0.51 0.51 88 1010.6
20260507022503 11 36 0.0 0.0 0.00 0.51 0.51 88 1010.8
20260507022004 11 36 0.0 0.0 0.00 0.51 0.51 88 1011.0
20260507021503 11 36 0.0 0.0 0.00 0.51 0.51 88 1011.1
20260507021005 11 36 0.0 1.6 0.00 0.51 0.51 88 1011.3
20260507020504 11 36 1.6 3.2 0.00 0.51 0.51 89 1011.1
20260507020004 11 36 0.0 0.0 0.00 0.51 0.51 88 1011.3
20260507015504 11 36 0.0 0.0 0.00 0.51 0.51 88 1011.4
20260507015004 11 36 0.0 0.0 0.00 0.51 0.51 87 1011.3
20260507014504 11 36 0.0 0.0 0.00 0.51 0.51 87 1011.2
20260507014004 11 36 0.0 0.0 0.00 0.51 0.51 86 1011.3
20260507013504 11 36 0.0 0.0 0.00 0.51 0.51 86 1011.3
20260507013004 11 36 0.0 0.0 0.00 0.51 0.51 86 1011.0
20260507012504 11 36 0.0 0.0 0.00 0.51 0.51 87 1011.0
20260507012003 11 36 0.0 1.6 0.00 0.51 0.51 86 1011.0
20260507011504 11 36 0.0 0.0 0.00 0.51 0.51 86 1011.4
20260507011004 11 36 0.0 1.6 0.00 0.51 0.51 86 1011.4
20260507010504 11 36 0.0 0.0 0.00 0.51 0.51 85 1011.3
20260507010004 11 36 0.0 0.0 0.00 0.51 0.51 85 1011.1
20260507005504 11 36 0.0 3.2 0.00 0.51 0.51 85 1010.9
20260507005004 11 36 0.0 1.6 0.00 0.51 0.51 86 1010.9
20260507004504 11 36 0.0 1.6 0.00 0.51 0.51 86 1010.9
20260507004004 11 36 0.0 0.0 0.00 0.51 0.51 86 1010.7
20260507003504 11 36 0.0 1.6 0.00 0.51 0.51 85 1010.6
20260507003004 11 32 1.6 3.2 0.00 0.51 0.51 85 1010.5
20260507002503 11 55 0.0 0.0 0.00 0.51 0.51 86 1010.4
20260507002004 11 55 0.0 0.0 0.00 0.51 0.51 86 1010.3
20260507001504 11 55 0.0 1.6 0.00 0.51 0.51 85 1010.2
20260507001004 11 55 1.6 3.2 0.00 0.51 0.51 85 1010.2
20260507000505 11 55 0.0 4.8 0.00 0.51 0.51 85 1010.0
20260507000004 11 52 1.6 4.8 0.00 0.51 0.51 85 1009.8
20260506235503 11 45 3.2 4.8 0.00 0.51 0.51 85 1009.7
20260506235003 11 51 1.6 4.8 0.00 0.51 0.51 85 1009.7
20260506234004 11 50 1.6 4.8 0.00 0.51 0.51 85 1009.6
20260506233503 11 53 0.0 0.0 0.00 0.51 0.51 85 1009.4
20260506232504 12 53 3.2 4.8 0.00 0.51 0.51 85 1009.4
20260506232004 12 79 1.6 4.8 0.00 0.51 0.51 86 1009.4
20260506231003 12 48 0.0 4.8 0.00 0.51 0.51 84 1009.4
20260506230504 12 41 3.2 8.0 0.00 0.51 0.51 85 1009.2
20260506230004 12 51 3.2 12.9 0.00 0.51 0.51 84 1009.3
20260506225003 12 40 1.6 4.8 0.00 0.51 0.51 85 1009.0
20260506224504 12 27 4.8 9.7 0.00 0.51 0.51 85 1009.0
20260506224004 12 40 1.6 4.8 0.00 0.51 0.51 86 1009.0
20260506223504 12 44 0.0 3.2 0.00 0.51 0.51 87 1009.1
20260506223003 12 44 0.0 4.8 0.00 0.51 0.51 87 1009.0
20260506222504 12 292 0.0 0.0 0.00 0.51 0.51 86 1009.0
20260506222003 12 292 0.0 1.6 0.00 0.51 0.51 87 1008.9
20260506221503 12 292 0.0 3.2 0.00 0.51 0.51 87 1008.8
20260506221003 12 288 0.0 3.2 0.00 0.51 0.51 87 1008.7
20260506220506 12 54 0.0 1.6 0.00 0.51 0.51 87 1008.6
20260506215004 12 32 3.2 4.8 0.03 0.51 0.51 87 1008.4
20260506214504 13 31 0.0 4.8 0.03 0.51 0.51 87 1008.1
20260506214004 13 1 1.6 4.8 0.03 0.51 0.51 87 1008.0
20260506213504 13 17 0.0 4.8 0.03 0.51 0.51 87 1007.8
20260506213004 13 290 1.6 3.2 0.05 0.51 0.51 87 1007.6
20260506212504 13 12 0.0 3.2 0.05 0.51 0.51 88 1007.5
20260506212004 13 68 1.6 4.8 0.05 0.51 0.51 88 1007.6
20260506211503 13 38 1.6 4.8 0.05 0.51 0.51 88 1007.4
20260506211003 13 84 0.0 3.2 0.05 0.51 0.51 88 1007.3
20260506210504 13 87 0.0 3.2 0.05 0.51 0.51 89 1007.3
20260506205003 14 295 1.6 4.8 0.03 0.48 0.48 87 1007.0
20260506204504 14 244 1.6 4.8 0.03 0.48 0.48 87 1006.9
20260506204003 15 258 1.6 4.8 0.03 0.48 0.48 86 1006.6
20260506203004 15 345 3.2 11.3 0.03 0.48 0.48 85 1006.1
20260506202503 16 347 0.0 11.3 0.00 0.46 0.46 83 1006.0
20260506202003 16 346 1.6 4.8 0.00 0.46 0.46 83 1005.8
20260506201504 17 316 4.8 27.4 0.00 0.46 0.46 83 1005.8
20260506201004 17 270 4.8 12.9 0.00 0.46 0.46 85 1005.5
20260506200504 17 223 3.2 9.7 0.00 0.46 0.46 85 1005.3
20260506200004 17 232 3.2 8.0 0.00 0.46 0.46 85 1005.3
20260506195504 17 220 3.2 4.8 0.00 0.46 0.46 86 1005.2
20260506195004 17 256 3.2 8.0 0.00 0.46 0.46 87 1005.3
20260506194504 17 262 1.6 4.8 0.00 0.46 0.46 88 1005.3
20260506194004 17 269 3.2 14.5 0.00 0.46 0.46 88 1005.4
20260506192004 17 290 1.6 4.8 0.00 0.46 0.46 88 1005.4
20260506191504 17 274 1.6 4.8 0.00 0.46 0.46 89 1005.3
20260506191004 17 261 0.0 4.8 0.00 0.46 0.46 89 1005.2
20260506190004 17 265 1.6 8.0 0.00 0.46 0.46 88 1005.4
20260506185504 17 236 1.6 4.8 0.00 0.46 0.46 88 1005.4
20260506185003 17 232 1.6 4.8 0.00 0.46 0.46 88 1005.3
20260506184004 17 211 0.0 0.0 0.00 0.46 0.46 88 1005.3
20260506182504 17 211 0.0 0.0 0.00 0.46 0.46 88 1005.2
20260506182004 17 211 0.0 0.0 0.00 0.46 0.46 88 1005.2
20260506181503 17 211 0.0 0.0 0.00 0.46 0.46 88 1005.2
20260506181004 17 211 0.0 0.0 0.00 0.46 0.46 88 1005.2
20260506180504 17 211 0.0 1.6 0.00 0.46 0.46 87 1005.2
20260506180005 17 211 1.6 3.2 0.00 0.46 0.46 87 1005.2
20260506175003 17 211 0.0 3.2 0.00 0.46 0.46 87 1005.2
20260506174504 16 296 1.6 4.8 0.00 0.46 0.46 88 1005.2
20260506174004 16 198 1.6 4.8 0.00 0.46 0.46 88 1005.2
20260506173004 16 232 3.2 4.8 0.00 0.46 0.46 88 1005.3
20260506172504 16 171 1.6 4.8 0.00 0.46 0.46 89 1005.3
20260506172004 16 215 3.2 4.8 0.00 0.46 0.46 89 1005.3
20260506171504 16 249 1.6 4.8 0.00 0.46 0.46 89 1005.2
20260506171004 16 219 0.0 3.2 0.00 0.46 0.46 89 1005.3
20260506170504 16 163 1.6 3.2 0.00 0.46 0.46 90 1005.4
20260506165004 16 246 1.6 4.8 0.00 0.46 0.46 90 1005.6
20260506164504 16 213 3.2 4.8 0.00 0.46 0.46 90 1005.5
20260506164004 16 240 3.2 9.7 0.00 0.46 0.46 90 1005.5
20260506163504 15 290 1.6 4.8 0.00 0.46 0.46 91 1005.6
20260506162504 15 290 0.0 3.2 0.00 0.46 0.46 92 1005.7
20260506161503 15 288 0.0 1.6 0.00 0.46 0.46 92 1005.7
20260506160003 15 304 1.6 4.8 0.00 0.46 0.46 93 1005.7
20260506155504 15 244 1.6 4.8 0.00 0.46 0.46 92 1005.8
20260506155004 15 205 1.6 4.8 0.00 0.46 0.46 93 1005.7
20260506154504 15 223 3.2 8.0 0.03 0.46 0.46 93 1005.7
20260506154004 15 238 0.0 3.2 0.03 0.46 0.46 94 1005.7
20260506153503 14 238 0.0 3.2 0.05 0.46 0.46 94 1005.7
20260506153004 15 227 0.0 3.2 0.05 0.46 0.46 95 1005.6
20260506152504 14 227 0.0 0.0 0.05 0.46 0.46 94 1005.5
20260506152004 14 227 0.0 1.6 0.05 0.46 0.46 94 1005.4
20260506151504 14 228 1.6 3.2 0.05 0.46 0.46 94 1005.4
20260506151004 14 44 1.6 4.8 0.05 0.46 0.46 95 1005.4
20260506150504 14 44 1.6 3.2 0.05 0.46 0.46 95 1005.5
20260506150004 14 39 0.0 1.6 0.08 0.46 0.46 95 1005.5
20260506145504 14 302 3.2 9.7 0.08 0.46 0.46 94 1005.6
20260506144503 14 268 3.2 8.0 0.08 0.43 0.43 94 1005.7
20260506144004 14 38 1.6 4.8 0.08 0.43 0.43 95 1005.5
20260506143004 14 34 0.0 4.8 0.05 0.41 0.41 95 1005.5
20260506142504 14 41 1.6 4.8 0.05 0.41 0.41 95 1005.4
20260506142004 14 336 0.0 1.6 0.05 0.41 0.41 94 1005.4
20260506141504 15 336 0.0 1.6 0.05 0.41 0.41 94 1005.6
20260506141004 14 336 0.0 1.6 0.05 0.41 0.41 95 1005.5
20260506140505 14 336 0.0 1.6 0.05 0.41 0.41 95 1005.4
20260506140004 14 336 0.0 4.8 0.05 0.38 0.38 95 1005.4
20260506135504 14 0 1.6 3.2 0.05 0.38 0.38 95 1005.6
20260506135004 14 47 0.0 3.2 0.05 0.36 0.36 95 1005.6
20260506134505 14 327 0.0 4.8 0.05 0.36 0.36 95 1005.6
20260506134004 14 290 1.6 4.8 0.05 0.36 0.36 95 1005.8
20260506133504 14 63 4.8 9.7 0.08 0.36 0.36 95 1005.6
20260506133004 14 153 1.6 3.2 0.10 0.36 0.36 96 1005.6
20260506132504 14 76 3.2 4.8 0.10 0.36 0.36 96 1005.6
20260506131504 14 80 0.0 3.2 0.13 0.36 0.36 96 1005.6
20260506131004 14 62 0.0 3.2 0.15 0.36 0.36 96 1005.6
20260506130504 14 62 3.2 4.8 0.15 0.36 0.36 96 1005.6
20260506130005 14 47 1.6 4.8 0.15 0.36 0.36 95 1005.7
20260506125504 14 61 3.2 4.8 0.13 0.33 0.33 95 1005.6
20260506125004 14 92 1.6 4.8 0.13 0.30 0.30 95 1005.8
20260506124504 14 64 3.2 4.8 0.13 0.30 0.30 95 1005.9
20260506124004 14 97 1.6 4.8 0.13 0.30 0.30 96 1005.9
20260506123504 14 40 0.0 0.0 0.10 0.28 0.28 95 1006.1
20260506123004 13 40 0.0 0.0 0.08 0.25 0.25 95 1006.3
20260506122004 13 40 0.0 0.0 0.08 0.23 0.23 95 1006.4
20260506121504 13 40 0.0 0.0 0.08 0.23 0.23 95 1006.5
20260506121004 13 40 0.0 0.0 0.05 0.20 0.20 95 1006.5
20260506120504 14 40 0.0 0.0 0.05 0.20 0.20 95 1006.4
20260506120004 14 40 0.0 1.6 0.05 0.20 0.20 95 1006.2
20260506115506 14 40 1.6 4.8 0.05 0.20 0.20 95 1006.1
20260506114004 14 57 1.6 3.2 0.05 0.18 0.18 95 1005.9
20260506113504 14 57 0.0 1.6 0.05 0.18 0.18 95 1006.0
20260506112504 14 57 1.6 1.6 0.05 0.15 0.15 95 1005.9
20260506112004 14 57 0.0 1.6 0.05 0.15 0.15 95 1005.8
20260506111504 13 57 0.0 1.6 0.05 0.15 0.15 95 1005.9
20260506111004 14 57 1.6 3.2 0.05 0.15 0.15 95 1005.9
20260506110504 14 57 0.0 3.2 0.08 0.15 0.15 95 1005.8
20260506110004 14 57 0.0 3.2 0.08 0.15 0.15 95 1005.7
20260506105504 14 69 1.6 4.8 0.08 0.15 0.15 95 1005.7
20260506105004 14 313 0.0 3.2 0.08 0.15 0.15 94 1005.8
20260506104004 14 313 0.0 1.6 0.08 0.13 0.13 94 1005.7
20260506103504 14 313 0.0 1.6 0.08 0.13 0.13 94 1005.7
20260506103004 14 313 0.0 3.2 0.08 0.13 0.13 94 1005.7
20260506102504 14 313 0.0 1.6 0.05 0.10 0.10 94 1005.8
20260506102004 14 313 0.0 0.0 0.05 0.10 0.10 93 1005.9
20260506101504 14 313 0.0 0.0 0.05 0.10 0.10 93 1005.9
20260506100504 14 313 0.0 0.0 0.05 0.08 0.08 93 1005.7
20260506100004 14 313 0.0 0.0 0.05 0.08 0.08 93 1005.6
20260506095004 14 313 0.0 3.2 0.05 0.08 0.08 93 1005.6
20260506094504 14 313 0.0 1.6 0.05 0.05 0.05 93 1005.6
20260506093504 14 313 0.0 0.0 0.05 0.05 0.05 93 1005.7
20260506093004 14 313 0.0 0.0 0.05 0.05 0.05 92 1005.7
20260506092504 14 313 0.0 0.0 0.05 0.05 0.05 92 1005.6
20260506092004 14 313 0.0 0.0 0.05 0.05 0.05 92 1005.7
20260506091504 14 313 0.0 0.0 0.05 0.05 0.05 92 1005.7
20260506091004 14 313 0.0 1.6 0.05 0.05 0.05 91 1005.7
20260506090504 14 313 0.0 0.0 0.05 0.05 0.05 91 1005.6